Location: Acton
(51.4942°N, 0.2232°W)
Time: 09:47:16
(UTC+00:00)

Okean 1-7 Rocket - Pass Details

Date: 21 January 2021
Orbit: 615 x 650 km, 82.5° (Epoch: 26 February)

Event Time Altitude Azimuth Distance (km) Brightness Sun altitude
Rises 17:56:47 0° 174° (S) 2,946 7.2 -13.0°
Reaches altitude 10° 17:59:03 10° 169° (S) 2,044 6.3 -13.3°
Maximum altitude 18:03:27 51° 94° (E) 822 3.8 -14.0°
Drops below altitude 10° 18:07:54 10° 19° (NNE) 2,068 5.9 -14.6°
Enters shadow 18:09:39 - 16° (NNE) 2,762 6.6 -14.9°
